Time,TemperatureF,DewpointF,PressureIn,WindDirection,WindDirectionDegrees,WindSpeedMPH,WindSpeedGustMPH,Humidity,HourlyPrecipIn,Conditions,Clouds,dailyrainin,SoftwareType,DateUTC
2013-05-09 00:01:00,60.3,34.5,30.00,East,90,0.0,0.0,38,0.00,,,0.00,meteohub,2013-05-09 04:01:00,
2013-05-09 00:02:00,60.1,33.8,30.00,East,90,0.0,0.0,37,0.00,,,0.00,meteohub,2013-05-09 04:02:00,
2013-05-09 00:03:00,60.1,33.8,30.00,East,90,0.0,0.0,37,0.00,,,0.00,meteohub,2013-05-09 04:03:00,
2013-05-09 00:07:00,59.9,33.6,30.00,East,90,0.0,0.0,37,0.00,,,0.00,meteohub,2013-05-09 04:07:00,
2013-05-09 00:13:00,59.7,33.4,30.00,East,90,0.0,0.0,37,0.00,,,0.00,meteohub,2013-05-09 04:13:00,
2013-05-09 00:18:00,59.5,34.0,30.00,East,90,0.0,0.0,38,0.00,,,0.00,meteohub,2013-05-09 04:18:00,
2013-05-09 00:23:00,59.4,33.8,30.00,East,90,0.0,0.0,38,0.00,,,0.00,meteohub,2013-05-09 04:23:00,
2013-05-09 00:28:00,59.2,35.6,30.00,East,90,0.0,0.0,41,0.00,,,0.00,meteohub,2013-05-09 04:28:00,
2013-05-09 00:33:00,59.2,37.4,30.00,East,90,0.0,0.0,44,0.00,,,0.00,meteohub,2013-05-09 04:33:00,
2013-05-09 00:38:00,59.0,36.5,30.00,East,90,0.0,0.0,43,0.00,,,0.00,meteohub,2013-05-09 04:38:00,
2013-05-09 00:43:00,59.0,36.5,30.00,East,90,0.0,0.0,43,0.00,,,0.00,meteohub,2013-05-09 04:43:00,
2013-05-09 00:48:00,59.0,37.8,30.00,East,90,0.0,0.0,45,0.00,,,0.00,meteohub,2013-05-09 04:48:00,
2013-05-09 00:53:00,58.8,38.1,30.00,East,90,0.0,0.0,46,0.00,,,0.00,meteohub,2013-05-09 04:53:00,
2013-05-09 00:58:00,58.8,38.1,30.00,East,90,0.0,0.0,46,0.00,,,0.00,meteohub,2013-05-09 04:58:00,
2013-05-09 01:03:00,58.5,37.8,30.00,East,90,0.0,0.0,46,0.00,,,0.00,meteohub,2013-05-09 05:03:00,
2013-05-09 01:08:00,58.6,37.9,30.00,East,90,0.0,0.0,46,0.00,,,0.00,meteohub,2013-05-09 05:08:00,
2013-05-09 01:13:00,58.5,37.2,30.00,East,90,0.0,0.0,45,0.00,,,0.00,meteohub,2013-05-09 05:13:00,
2013-05-09 01:19:00,58.5,37.2,29.97,East,90,0.0,0.0,45,0.00,,,0.00,meteohub,2013-05-09 05:19:00,
2013-05-09 01:24:00,58.5,38.3,29.97,East,90,0.0,0.0,47,0.00,,,0.00,meteohub,2013-05-09 05:24:00,
2013-05-09 01:29:00,58.1,38.5,29.97,East,90,0.0,0.0,48,0.00,,,0.00,meteohub,2013-05-09 05:29:00,
2013-05-09 01:34:00,57.9,38.3,29.97,East,90,0.0,0.0,48,0.00,,,0.00,meteohub,2013-05-09 05:34:00,
2013-05-09 01:39:00,57.7,37.8,29.97,East,90,0.0,0.0,47,0.00,,,0.00,meteohub,2013-05-09 05:39:00,
2013-05-09 01:44:00,57.9,37.2,29.97,East,90,0.0,0.0,46,0.00,,,0.00,meteohub,2013-05-09 05:44:00,
2013-05-09 01:49:00,57.9,37.2,29.97,East,90,0.0,0.0,46,0.00,,,0.00,meteohub,2013-05-09 05:49:00,
2013-05-09 01:54:00,57.9,37.8,29.97,East,90,0.0,0.0,47,0.00,,,0.00,meteohub,2013-05-09 05:54:00,
2013-05-09 01:59:00,57.6,37.6,29.97,East,90,0.0,0.0,47,0.00,,,0.00,meteohub,2013-05-09 05:59:00,
2013-05-09 02:04:00,57.4,36.9,29.97,East,90,0.0,0.0,46,0.00,,,0.00,meteohub,2013-05-09 06:04:00,
2013-05-09 02:09:00,57.4,36.9,29.97,East,90,0.0,0.0,46,0.00,,,0.00,meteohub,2013-05-09 06:09:00,
2013-05-09 02:14:00,57.4,38.5,29.97,East,90,0.0,0.0,49,0.00,,,0.00,meteohub,2013-05-09 06:14:00,
2013-05-09 02:20:00,57.2,38.3,29.97,East,90,0.0,0.0,49,0.00,,,0.00,meteohub,2013-05-09 06:20:00,
2013-05-09 02:25:00,57.2,39.7,29.97,East,90,0.0,0.0,52,0.00,,,0.00,meteohub,2013-05-09 06:25:00,
2013-05-09 02:30:00,57.0,40.1,29.97,ESE,112,0.0,0.0,53,0.00,,,0.00,meteohub,2013-05-09 06:30:00,
2013-05-09 02:35:00,56.8,39.9,29.97,ESE,112,0.0,0.0,53,0.00,,,0.00,meteohub,2013-05-09 06:35:00,
2013-05-09 02:40:00,56.7,39.7,29.97,ESE,112,0.0,0.0,53,0.00,,,0.00,meteohub,2013-05-09 06:40:00,
2013-05-09 02:45:00,56.7,40.3,30.00,ESE,112,0.0,0.0,54,0.00,,,0.00,meteohub,2013-05-09 06:45:00,
2013-05-09 02:50:00,56.7,40.3,30.00,ESE,112,0.0,0.0,54,0.00,,,0.00,meteohub,2013-05-09 06:50:00,
2013-05-09 02:55:00,56.5,40.5,30.00,ESE,112,0.0,0.0,55,0.00,,,0.00,meteohub,2013-05-09 06:55:00,
2013-05-09 03:00:00,56.3,40.3,29.97,ESE,112,0.0,0.0,55,0.00,,,0.00,meteohub,2013-05-09 07:00:00,
2013-05-09 03:05:00,56.3,39.9,29.97,ESE,112,0.0,0.0,54,0.00,,,0.00,meteohub,2013-05-09 07:05:00,
2013-05-09 03:10:00,56.3,40.3,29.97,ESE,112,0.0,0.0,55,0.00,,,0.00,meteohub,2013-05-09 07:10:00,
2013-05-09 03:15:00,56.1,40.3,29.97,ESE,112,0.0,0.0,55,0.00,,,0.00,meteohub,2013-05-09 07:15:00,
2013-05-09 03:20:00,55.9,39.6,29.97,ESE,112,0.0,0.0,54,0.00,,,0.00,meteohub,2013-05-09 07:20:00,
2013-05-09 03:25:00,56.5,43.2,29.97,South,180,0.0,0.0,61,0.00,,,0.00,meteohub,2013-05-09 07:25:00,
2013-05-09 03:31:00,56.5,42.8,29.97,SSE,158,0.0,0.0,60,0.00,,,0.00,meteohub,2013-05-09 07:31:00,
2013-05-09 03:36:00,56.5,41.5,29.97,SSE,158,0.0,0.0,57,0.00,,,0.00,meteohub,2013-05-09 07:36:00,
2013-05-09 03:41:00,56.3,41.4,29.97,SE,135,0.0,0.0,57,0.00,,,0.00,meteohub,2013-05-09 07:41:00,
2013-05-09 03:46:00,55.9,41.4,29.97,SE,135,0.0,0.0,58,0.00,,,0.00,meteohub,2013-05-09 07:46:00,
2013-05-09 03:51:00,55.8,40.8,29.97,SE,135,0.0,0.0,57,0.00,,,0.00,meteohub,2013-05-09 07:51:00,
2013-05-09 03:56:00,55.6,41.0,29.97,SE,135,0.0,0.0,58,0.00,,,0.00,meteohub,2013-05-09 07:56:00,
2013-05-09 04:01:00,55.2,40.6,29.97,SE,135,0.0,0.0,58,0.00,,,0.00,meteohub,2013-05-09 08:01:00,
2013-05-09 04:06:00,55.0,39.7,29.97,SE,135,0.0,0.0,56,0.00,,,0.00,meteohub,2013-05-09 08:06:00,
2013-05-09 04:11:00,55.0,40.1,29.97,SE,135,0.0,0.0,57,0.00,,,0.00,meteohub,2013-05-09 08:11:00,
2013-05-09 04:16:00,55.0,39.7,29.97,SE,135,0.0,0.0,56,0.00,,,0.00,meteohub,2013-05-09 08:16:00,
2013-05-09 04:21:00,55.2,40.3,29.97,SE,135,0.0,0.0,57,0.00,,,0.00,meteohub,2013-05-09 08:21:00,
2013-05-09 04:26:00,55.6,41.9,29.97,WSW,248,0.0,0.0,60,0.00,,,0.00,meteohub,2013-05-09 08:26:00,
2013-05-09 04:31:00,55.8,43.7,29.97,WSW,248,0.0,0.0,64,0.00,,,0.00,meteohub,2013-05-09 08:31:00,
2013-05-09 04:37:00,55.9,42.6,29.97,WSW,248,0.0,0.0,61,0.00,,,0.00,meteohub,2013-05-09 08:37:00,
2013-05-09 04:42:00,55.8,43.0,29.97,SSE,158,0.0,0.0,62,0.00,,,0.00,meteohub,2013-05-09 08:42:00,
2013-05-09 04:47:00,55.2,41.5,29.97,ESE,112,0.0,0.0,60,0.00,,,0.00,meteohub,2013-05-09 08:47:00,
2013-05-09 04:52:00,54.7,40.6,29.97,ESE,112,0.0,0.0,59,0.00,,,0.00,meteohub,2013-05-09 08:52:00,
2013-05-09 04:57:00,54.5,40.1,29.97,ESE,112,0.0,0.0,58,0.00,,,0.00,meteohub,2013-05-09 08:57:00,
2013-05-09 05:02:00,54.3,39.9,29.97,ESE,112,0.0,0.0,58,0.00,,,0.00,meteohub,2013-05-09 09:02:00,
2013-05-09 05:07:00,54.3,40.3,29.97,ESE,112,0.0,0.0,59,0.00,,,0.00,meteohub,2013-05-09 09:07:00,
2013-05-09 05:12:00,54.1,41.0,29.97,ESE,112,0.0,0.0,61,0.00,,,0.00,meteohub,2013-05-09 09:12:00,
2013-05-09 05:17:00,54.3,41.5,29.97,ESE,112,0.0,0.0,62,0.00,,,0.00,meteohub,2013-05-09 09:17:00,
2013-05-09 05:22:00,54.3,43.2,29.97,ESE,112,0.0,0.0,66,0.00,,,0.00,meteohub,2013-05-09 09:22:00,
2013-05-09 05:27:00,54.3,43.2,29.97,ESE,112,0.0,0.0,66,0.00,,,0.00,meteohub,2013-05-09 09:27:00,
2013-05-09 05:32:00,54.5,43.7,29.97,ESE,112,0.0,0.0,67,0.00,,,0.00,meteohub,2013-05-09 09:32:00,
2013-05-09 05:37:00,54.1,43.9,29.97,ESE,112,0.0,0.0,68,0.00,,,0.00,meteohub,2013-05-09 09:37:00,
2013-05-09 05:42:00,54.1,43.9,29.97,ESE,112,0.0,0.0,68,0.00,,,0.00,meteohub,2013-05-09 09:42:00,
2013-05-09 05:47:00,54.0,44.1,29.97,ESE,112,0.0,0.0,69,0.00,,,0.00,meteohub,2013-05-09 09:47:00,
2013-05-09 05:52:00,53.8,43.9,29.97,ESE,112,0.0,0.0,69,0.00,,,0.00,meteohub,2013-05-09 09:52:00,
2013-05-09 05:57:00,53.6,44.1,29.97,ESE,112,0.0,0.0,70,0.00,,,0.00,meteohub,2013-05-09 09:57:00,
2013-05-09 06:02:00,53.6,44.4,29.97,ESE,112,0.0,0.0,71,0.00,,,0.00,meteohub,2013-05-09 10:02:00,
2013-05-09 06:07:00,53.6,44.4,29.97,SSE,158,0.0,0.0,71,0.00,,,0.00,meteohub,2013-05-09 10:07:00,
2013-05-09 06:12:00,53.6,44.4,29.97,SSE,158,0.0,0.0,71,0.00,,,0.00,meteohub,2013-05-09 10:12:00,
2013-05-09 06:17:00,54.0,44.8,29.97,South,180,0.0,0.0,71,0.00,,,0.00,meteohub,2013-05-09 10:17:00,
2013-05-09 06:22:00,54.1,45.7,29.97,SSW,202,0.0,0.0,73,0.00,,,0.00,meteohub,2013-05-09 10:22:00,
2013-05-09 06:27:00,55.0,49.3,29.97,SSW,202,0.0,0.0,81,0.00,,,0.00,meteohub,2013-05-09 10:27:00,
2013-05-09 06:32:00,55.0,49.3,29.97,SSE,158,0.0,0.0,81,0.00,,,0.00,meteohub,2013-05-09 10:32:00,
2013-05-09 06:37:00,55.0,48.7,29.97,South,180,0.0,0.0,79,0.00,,,0.00,meteohub,2013-05-09 10:37:00,
2013-05-09 06:42:00,55.0,48.4,29.97,SSE,158,0.0,0.0,78,0.00,,,0.00,meteohub,2013-05-09 10:42:00,
2013-05-09 06:47:00,55.0,48.4,29.94,SSE,158,0.0,0.0,78,0.00,,,0.00,meteohub,2013-05-09 10:47:00,
2013-05-09 06:52:00,55.2,48.6,29.94,SSE,158,0.0,0.0,78,0.00,,,0.00,meteohub,2013-05-09 10:52:00,
2013-05-09 06:57:00,55.6,49.1,29.94,SSW,202,0.0,0.0,79,0.00,,,0.00,meteohub,2013-05-09 10:57:00,
2013-05-09 07:02:00,55.8,49.3,29.94,South,180,0.0,0.0,79,0.00,,,0.00,meteohub,2013-05-09 11:02:00,
2013-05-09 07:07:00,55.9,49.5,29.94,South,180,0.0,0.0,79,0.00,,,0.00,meteohub,2013-05-09 11:07:00,
2013-05-09 07:12:00,56.1,50.0,29.94,SSW,202,0.0,0.0,80,0.00,,,0.00,meteohub,2013-05-09 11:12:00,
2013-05-09 07:17:00,56.7,50.9,29.97,WSW,248,0.0,0.0,81,0.00,,,0.00,meteohub,2013-05-09 11:17:00,
2013-05-09 07:22:00,57.0,50.5,29.97,SSW,202,0.0,0.0,79,0.00,,,0.00,meteohub,2013-05-09 11:22:00,
2013-05-09 07:27:00,57.4,49.8,29.97,SSE,158,0.0,0.0,76,0.00,,,0.00,meteohub,2013-05-09 11:27:00,
2013-05-09 07:32:00,57.4,49.1,29.97,SSE,158,0.0,0.0,74,0.00,,,0.00,meteohub,2013-05-09 11:32:00,
2013-05-09 07:37:00,57.7,49.1,29.97,East,90,0.0,0.0,73,0.00,,,0.00,meteohub,2013-05-09 11:37:00,
2013-05-09 07:42:00,57.9,48.6,29.97,ESE,112,0.0,0.0,71,0.00,,,0.00,meteohub,2013-05-09 11:42:00,
2013-05-09 07:47:00,57.9,48.2,29.97,ESE,112,0.0,0.0,70,0.00,,,0.00,meteohub,2013-05-09 11:47:00,
2013-05-09 07:52:00,58.3,48.9,29.97,ESE,112,0.0,0.0,71,0.00,,,0.00,meteohub,2013-05-09 11:52:00,
2013-05-09 07:57:00,58.8,49.5,29.97,East,90,0.0,0.0,71,0.00,,,0.00,meteohub,2013-05-09 11:57:00,
2013-05-09 08:02:00,59.5,50.5,29.97,East,90,0.0,0.0,72,0.00,,,0.00,meteohub,2013-05-09 12:02:00,
2013-05-09 08:07:00,59.7,50.4,29.97,ENE,68,0.0,0.0,71,0.00,,,0.00,meteohub,2013-05-09 12:07:00,
2013-05-09 08:12:00,59.9,49.6,29.97,ESE,112,0.0,0.0,69,0.00,,,0.00,meteohub,2013-05-09 12:12:00,
2013-05-09 08:17:00,60.1,47.1,29.97,ESE,112,0.0,0.0,62,0.00,,,0.00,meteohub,2013-05-09 12:17:00,
2013-05-09 08:22:00,60.3,46.8,29.97,ENE,68,0.0,0.0,61,0.00,,,0.00,meteohub,2013-05-09 12:22:00,
2013-05-09 08:27:00,60.4,45.1,29.97,ESE,112,0.0,0.0,57,0.00,,,0.00,meteohub,2013-05-09 12:27:00,
2013-05-09 08:32:00,60.6,43.9,29.97,ESE,112,0.0,0.0,54,0.00,,,0.00,meteohub,2013-05-09 12:32:00,
2013-05-09 08:37:00,61.0,42.8,29.97,East,90,0.0,0.0,51,0.00,,,0.00,meteohub,2013-05-09 12:37:00,
2013-05-09 08:42:00,61.3,43.5,29.97,East,90,0.0,0.0,52,0.00,,,0.00,meteohub,2013-05-09 12:42:00,
2013-05-09 08:47:00,61.7,40.8,29.97,SE,135,0.0,0.0,46,0.00,,,0.00,meteohub,2013-05-09 12:47:00,
2013-05-09 08:52:00,62.4,41.9,29.97,NNE,22,0.0,0.0,47,0.00,,,0.00,meteohub,2013-05-09 12:52:00,
2013-05-09 08:57:00,63.0,42.4,29.97,East,90,0.0,0.0,47,0.00,,,0.00,meteohub,2013-05-09 12:57:00,
2013-05-09 09:02:00,63.1,37.8,29.97,SSW,202,0.0,0.0,39,0.00,,,0.00,meteohub,2013-05-09 13:02:00,
2013-05-09 09:07:00,63.5,38.8,29.97,SSW,202,0.0,0.0,40,0.00,,,0.00,meteohub,2013-05-09 13:07:00,
2013-05-09 09:12:00,63.7,37.6,29.97,SW,225,0.0,0.0,38,0.00,,,0.00,meteohub,2013-05-09 13:12:00,
2013-05-09 09:17:00,64.0,37.2,29.97,SSW,202,0.0,0.0,37,0.00,,,0.00,meteohub,2013-05-09 13:17:00,
2013-05-09 09:22:00,64.4,36.9,29.97,SW,225,0.0,0.0,36,0.00,,,0.00,meteohub,2013-05-09 13:22:00,
2013-05-09 09:27:00,64.8,37.9,29.97,WSW,248,0.0,0.0,37,0.00,,,0.00,meteohub,2013-05-09 13:27:00,
2013-05-09 09:32:00,65.5,39.2,30.00,NNE,22,0.0,0.0,38,0.00,,,0.00,meteohub,2013-05-09 13:32:00,
2013-05-09 09:37:00,66.0,39.0,30.00,WSW,248,0.0,0.0,37,0.00,,,0.00,meteohub,2013-05-09 13:37:00,
2013-05-09 09:42:00,66.6,38.1,30.00,WSW,248,0.0,0.0,35,0.00,,,0.00,meteohub,2013-05-09 13:42:00,
2013-05-09 09:47:00,66.9,38.5,29.97,WSW,248,0.0,0.0,35,0.00,,,0.00,meteohub,2013-05-09 13:47:00,
2013-05-09 09:52:00,67.6,37.6,29.97,West,270,0.0,0.0,33,0.00,,,0.00,meteohub,2013-05-09 13:52:00,
2013-05-09 09:57:00,68.4,38.1,29.97,West,270,0.0,0.0,33,0.00,,,0.00,meteohub,2013-05-09 13:57:00,
2013-05-09 10:02:00,69.1,37.2,29.97,West,270,0.0,0.0,31,0.00,,,0.00,meteohub,2013-05-09 14:02:00,
2013-05-09 10:07:00,69.6,34.2,29.97,WSW,248,0.0,0.0,27,0.00,,,0.00,meteohub,2013-05-09 14:07:00,
2013-05-09 10:12:00,69.8,32.4,29.97,SW,225,0.0,0.0,25,0.00,,,0.00,meteohub,2013-05-09 14:12:00,
2013-05-09 10:17:00,70.3,30.9,29.97,WNW,292,0.0,0.0,23,0.00,,,0.00,meteohub,2013-05-09 14:17:00,
2013-05-09 10:22:00,71.1,31.5,29.97,WNW,292,0.0,4.0,23,0.00,,,0.00,meteohub,2013-05-09 14:22:00,
2013-05-09 10:27:00,71.8,30.9,29.97,WNW,292,0.0,4.0,22,0.00,,,0.00,meteohub,2013-05-09 14:27:00,
2013-05-09 10:33:00,72.7,31.6,29.97,West,270,0.0,4.0,22,0.00,,,0.00,meteohub,2013-05-09 14:33:00,
2013-05-09 10:38:00,73.0,32.0,29.97,WSW,248,0.0,2.0,22,0.00,,,0.00,meteohub,2013-05-09 14:38:00,
2013-05-09 10:43:00,74.3,31.8,29.97,WNW,292,0.0,0.0,21,0.00,,,0.00,meteohub,2013-05-09 14:43:00,
2013-05-09 10:48:00,75.0,32.5,29.97,NNW,338,0.0,0.0,21,0.00,,,0.00,meteohub,2013-05-09 14:48:00,
2013-05-09 10:53:00,75.2,24.4,29.97,NNE,22,0.0,0.0,15,0.00,,,0.00,meteohub,2013-05-09 14:53:00,
2013-05-09 10:58:00,75.7,24.8,29.97,WNW,292,0.0,3.0,15,0.00,,,0.00,meteohub,2013-05-09 14:58:00,
2013-05-09 11:03:00,75.6,24.8,29.97,WSW,248,0.0,4.0,15,0.00,,,0.00,meteohub,2013-05-09 15:03:00,
2013-05-09 11:08:00,75.7,24.8,29.97,West,270,0.0,4.0,15,0.00,,,0.00,meteohub,2013-05-09 15:08:00,
2013-05-09 11:13:00,76.3,25.3,29.97,SW,225,0.0,4.0,15,0.00,,,0.00,meteohub,2013-05-09 15:13:00,
2013-05-09 11:18:00,75.7,21.6,29.97,West,270,3.0,0.0,13,0.00,,,0.00,meteohub,2013-05-09 15:18:00,
2013-05-09 11:23:00,74.8,20.8,29.97,WSW,248,2.0,7.0,13,0.00,,,0.00,meteohub,2013-05-09 15:23:00,
2013-05-09 11:28:00,75.0,20.8,29.97,WSW,248,2.0,7.0,13,0.00,,,0.00,meteohub,2013-05-09 15:28:00,
2013-05-09 11:33:00,75.4,21.2,29.97,WSW,248,4.0,7.0,13,0.00,,,0.00,meteohub,2013-05-09 15:33:00,
2013-05-09 11:39:00,75.9,21.6,29.97,NW,315,0.0,5.0,13,0.00,,,0.00,meteohub,2013-05-09 15:39:00,
2013-05-09 11:44:00,76.8,22.3,29.97,WNW,292,0.0,4.0,13,0.00,,,0.00,meteohub,2013-05-09 15:44:00,
2013-05-09 11:49:00,77.5,22.8,29.97,NNE,22,0.0,4.0,13,0.00,,,0.00,meteohub,2013-05-09 15:49:00,
2013-05-09 11:54:00,78.3,23.5,29.97,NW,315,0.0,4.0,13,0.00,,,0.00,meteohub,2013-05-09 15:54:00,
2013-05-09 11:59:00,78.4,23.5,29.97,NNE,22,0.0,4.0,13,0.00,,,0.00,meteohub,2013-05-09 15:59:00,
2013-05-09 12:04:00,79.0,22.1,29.97,NNW,338,0.0,4.0,12,0.00,,,0.00,meteohub,2013-05-09 16:04:00,
2013-05-09 12:09:00,79.5,22.5,29.97,SSW,202,2.0,4.0,12,0.00,,,0.00,meteohub,2013-05-09 16:09:00,
2013-05-09 12:14:00,77.4,22.8,29.97,SSW,202,1.0,3.0,13,0.00,,,0.00,meteohub,2013-05-09 16:14:00,
2013-05-09 12:19:00,77.2,22.6,29.97,SSW,202,1.0,6.0,13,0.00,,,0.00,meteohub,2013-05-09 16:19:00,
2013-05-09 12:24:00,78.3,23.5,29.97,East,90,0.0,6.0,13,0.00,,,0.00,meteohub,2013-05-09 16:24:00,
2013-05-09 12:29:00,79.3,22.5,29.97,NW,315,2.0,6.0,12,0.00,,,0.00,meteohub,2013-05-09 16:29:00,
2013-05-09 12:34:00,79.2,22.3,29.97,NW,315,3.0,4.0,12,0.00,,,0.00,meteohub,2013-05-09 16:34:00,
2013-05-09 12:39:00,77.7,23.0,29.97,NW,315,1.0,4.0,13,0.00,,,0.00,meteohub,2013-05-09 16:39:00,
2013-05-09 12:44:00,77.2,22.6,29.97,WNW,292,0.0,5.0,13,0.00,,,0.00,meteohub,2013-05-09 16:44:00,
2013-05-09 12:50:00,76.5,22.1,29.97,SW,225,0.0,5.0,13,0.00,,,0.00,meteohub,2013-05-09 16:50:00,
2013-05-09 12:55:00,75.9,21.6,29.97,SSW,202,0.0,4.0,13,0.00,,,0.00,meteohub,2013-05-09 16:55:00,
2013-05-09 13:00:00,76.6,22.1,29.97,South,180,0.0,4.0,13,0.00,,,0.00,meteohub,2013-05-09 17:00:00,
2013-05-09 13:05:00,78.3,23.5,29.97,East,90,0.0,4.0,13,0.00,,,0.00,meteohub,2013-05-09 17:05:00,
2013-05-09 13:10:00,78.3,23.5,29.97,ESE,112,0.0,0.0,13,0.00,,,0.00,meteohub,2013-05-09 17:10:00,
2013-05-09 13:15:00,78.3,23.5,29.97,SE,135,0.0,0.0,13,0.00,,,0.00,meteohub,2013-05-09 17:15:00,
2013-05-09 13:20:00,78.1,23.4,29.94,SW,225,1.0,1.0,13,0.00,,,0.00,meteohub,2013-05-09 17:20:00,
2013-05-09 13:25:00,78.3,23.5,29.94,South,180,0.0,2.0,13,0.00,,,0.00,meteohub,2013-05-09 17:25:00,
2013-05-09 13:30:00,78.6,23.7,29.94,ENE,68,0.0,2.0,13,0.00,,,0.00,meteohub,2013-05-09 17:30:00,
2013-05-09 13:35:00,79.7,22.6,29.97,NW,315,0.0,2.0,12,0.00,,,0.00,meteohub,2013-05-09 17:35:00,
2013-05-09 13:40:00,80.8,23.5,29.97,NW,315,0.0,0.0,12,0.00,,,0.00,meteohub,2013-05-09 17:40:00,
2013-05-09 13:45:00,81.1,23.7,29.97,NW,315,0.0,0.0,12,0.00,,,0.00,meteohub,2013-05-09 17:45:00,
2013-05-09 13:50:00,80.6,23.4,29.97,WNW,292,0.0,2.0,12,0.00,,,0.00,meteohub,2013-05-09 17:50:00,
2013-05-09 13:56:00,79.7,22.6,29.97,ESE,112,0.0,3.0,12,0.00,,,0.00,meteohub,2013-05-09 17:56:00,
2013-05-09 14:01:00,80.4,23.2,29.97,SW,225,2.0,3.0,12,0.00,,,0.00,meteohub,2013-05-09 18:01:00,
2013-05-09 14:06:00,80.2,23.2,29.97,SSW,202,1.0,3.0,12,0.00,,,0.00,meteohub,2013-05-09 18:06:00,
2013-05-09 14:11:00,79.5,22.5,29.97,SW,225,3.0,3.0,12,0.00,,,0.00,meteohub,2013-05-09 18:11:00,
2013-05-09 14:16:00,79.0,22.1,29.97,WSW,248,2.0,4.0,12,0.00,,,0.00,meteohub,2013-05-09 18:16:00,
2013-05-09 14:21:00,78.4,23.5,29.97,ESE,112,0.0,4.0,13,0.00,,,0.00,meteohub,2013-05-09 18:21:00,
2013-05-09 14:26:00,78.6,23.7,29.97,SW,225,3.0,4.0,13,0.00,,,0.00,meteohub,2013-05-09 18:26:00,
2013-05-09 14:31:00,78.6,23.7,29.97,East,90,0.0,3.0,13,0.00,,,0.00,meteohub,2013-05-09 18:31:00,
2013-05-09 14:36:00,78.6,23.7,29.97,WNW,292,0.0,3.0,13,0.00,,,0.00,meteohub,2013-05-09 18:36:00,
2013-05-09 14:41:00,78.6,23.7,29.97,WNW,292,0.0,3.0,13,0.00,,,0.00,meteohub,2013-05-09 18:41:00,
2013-05-09 14:46:00,79.5,22.5,29.97,WNW,292,0.0,1.0,12,0.00,,,0.00,meteohub,2013-05-09 18:46:00,
2013-05-09 14:51:00,80.2,23.2,29.97,WNW,292,0.0,0.0,12,0.00,,,0.00,meteohub,2013-05-09 18:51:00,
2013-05-09 14:57:00,80.4,23.2,29.97,WNW,292,0.0,1.0,12,0.00,,,0.00,meteohub,2013-05-09 18:57:00,
2013-05-09 15:02:00,80.1,23.0,29.94,NNE,22,0.0,1.0,12,0.00,,,0.00,meteohub,2013-05-09 19:02:00,
2013-05-09 15:07:00,79.7,22.6,29.94,NNE,22,0.0,0.0,12,0.00,,,0.00,meteohub,2013-05-09 19:07:00,
2013-05-09 15:12:00,79.2,22.3,29.94,WNW,292,0.0,0.0,12,0.00,,,0.00,meteohub,2013-05-09 19:12:00,
2013-05-09 15:17:00,78.6,23.7,29.94,NNE,22,0.0,1.0,13,0.00,,,0.00,meteohub,2013-05-09 19:17:00,
2013-05-09 15:22:00,78.3,23.5,29.94,West,270,0.0,1.0,13,0.00,,,0.00,meteohub,2013-05-09 19:22:00,
2013-05-09 15:27:00,77.4,22.8,29.94,SSW,202,4.0,4.0,13,0.00,,,0.00,meteohub,2013-05-09 19:27:00,
2013-05-09 15:32:00,77.2,22.6,29.94,WSW,248,1.0,6.0,13,0.00,,,0.00,meteohub,2013-05-09 19:32:00,
2013-05-09 15:37:00,77.4,22.8,29.94,SW,225,3.0,6.0,13,0.00,,,0.00,meteohub,2013-05-09 19:37:00,
2013-05-09 15:42:00,77.4,22.8,29.94,SSW,202,3.0,5.0,13,0.00,,,0.00,meteohub,2013-05-09 19:42:00,
2013-05-09 15:47:00,77.4,22.8,29.94,WSW,248,6.0,6.0,13,0.00,,,0.00,meteohub,2013-05-09 19:47:00,
2013-05-09 15:52:00,77.4,22.8,29.94,WSW,248,3.0,6.0,13,0.00,,,0.00,meteohub,2013-05-09 19:52:00,
2013-05-09 15:57:00,77.2,22.6,29.94,WSW,248,5.0,6.0,13,0.00,,,0.00,meteohub,2013-05-09 19:57:00,
2013-05-09 16:02:00,77.4,22.8,29.94,ESE,112,1.0,6.0,13,0.00,,,0.00,meteohub,2013-05-09 20:02:00,
2013-05-09 16:07:00,78.4,23.5,29.94,WSW,248,5.0,5.0,13,0.00,,,0.00,meteohub,2013-05-09 20:07:00,
2013-05-09 16:12:00,78.4,23.5,29.94,SW,225,4.0,5.0,13,0.00,,,0.00,meteohub,2013-05-09 20:12:00,
2013-05-09 16:17:00,79.0,22.1,29.94,SSW,202,2.0,6.0,12,0.00,,,0.00,meteohub,2013-05-09 20:17:00,
2013-05-09 16:22:00,78.8,21.9,29.94,WSW,248,5.0,6.0,12,0.00,,,0.00,meteohub,2013-05-09 20:22:00,
2013-05-09 16:27:00,78.6,23.7,29.94,WNW,292,0.0,5.0,13,0.00,,,0.00,meteohub,2013-05-09 20:27:00,
2013-05-09 16:32:00,78.6,23.7,29.94,WSW,248,2.0,6.0,13,0.00,,,0.00,meteohub,2013-05-09 20:32:00,
2013-05-09 16:37:00,78.4,23.5,29.94,ESE,112,0.0,6.0,13,0.00,,,0.00,meteohub,2013-05-09 20:37:00,
2013-05-09 16:42:00,78.8,21.9,29.94,SSW,202,0.0,4.0,12,0.00,,,0.00,meteohub,2013-05-09 20:42:00,
2013-05-09 16:47:00,78.8,21.9,29.94,ENE,68,3.0,6.0,12,0.00,,,0.00,meteohub,2013-05-09 20:47:00,
2013-05-09 16:52:00,78.4,23.5,29.94,East,90,2.0,6.0,13,0.00,,,0.00,meteohub,2013-05-09 20:52:00,
2013-05-09 16:57:00,78.1,23.4,29.94,WNW,292,2.0,6.0,13,0.00,,,0.00,meteohub,2013-05-09 20:57:00,
2013-05-09 17:02:00,77.7,23.0,29.91,WNW,292,3.0,3.0,13,0.00,,,0.00,meteohub,2013-05-09 21:02:00,
2013-05-09 17:07:00,77.2,22.6,29.91,SSE,158,0.0,8.0,13,0.00,,,0.00,meteohub,2013-05-09 21:07:00,
2013-05-09 17:12:00,77.5,22.8,29.91,SSE,158,0.0,8.0,13,0.00,,,0.00,meteohub,2013-05-09 21:12:00,
2013-05-09 17:17:00,78.3,23.5,29.91,SW,225,2.0,8.0,13,0.00,,,0.00,meteohub,2013-05-09 21:17:00,
2013-05-09 17:22:00,78.4,23.5,29.91,SE,135,0.0,3.0,13,0.00,,,0.00,meteohub,2013-05-09 21:22:00,
2013-05-09 17:27:00,78.3,23.5,29.91,SSW,202,0.0,3.0,13,0.00,,,0.00,meteohub,2013-05-09 21:27:00,
2013-05-09 17:32:00,78.6,23.7,29.91,SW,225,0.0,4.0,13,0.00,,,0.00,meteohub,2013-05-09 21:32:00,
2013-05-09 17:37:00,78.4,23.5,29.91,WSW,248,5.0,5.0,13,0.00,,,0.00,meteohub,2013-05-09 21:37:00,
2013-05-09 18:35:00,76.8,22.3,29.91,SSE,158,0.0,-999.0,13,0.00,,,0.00,meteohub,2013-05-09 22:35:00,
2013-05-09 18:40:00,76.6,22.1,29.91,SSE,158,0.0,0.0,13,0.00,,,0.00,meteohub,2013-05-09 22:40:00,
2013-05-09 18:45:00,76.3,21.9,29.91,SSE,158,0.0,0.0,13,0.00,,,0.00,meteohub,2013-05-09 22:45:00,
2013-05-09 18:51:00,75.9,21.6,29.91,SSE,158,0.0,0.0,13,0.00,,,0.00,meteohub,2013-05-09 22:51:00,
2013-05-09 18:56:00,75.6,21.4,29.91,SE,135,0.0,0.0,13,0.00,,,0.00,meteohub,2013-05-09 22:56:00,
2013-05-09 19:01:00,75.2,21.0,29.91,SE,135,0.0,0.0,13,0.00,,,0.00,meteohub,2013-05-09 23:01:00,
2013-05-09 19:06:00,74.8,20.8,29.91,SE,135,0.0,0.0,13,0.00,,,0.00,meteohub,2013-05-09 23:06:00,
2013-05-09 19:11:00,74.7,20.7,29.91,SE,135,0.0,0.0,13,0.00,,,0.00,meteohub,2013-05-09 23:11:00,
2013-05-09 19:16:00,74.5,20.5,29.91,SE,135,0.0,0.0,13,0.00,,,0.00,meteohub,2013-05-09 23:16:00,
2013-05-09 19:21:00,74.5,20.5,29.91,SE,135,0.0,0.0,13,0.00,,,0.00,meteohub,2013-05-09 23:21:00,
2013-05-09 19:26:00,74.3,20.3,29.91,SE,135,0.0,0.0,13,0.00,,,0.00,meteohub,2013-05-09 23:26:00,
2013-05-09 19:31:00,74.1,20.3,29.88,SE,135,0.0,0.0,13,0.00,,,0.00,meteohub,2013-05-09 23:31:00,
2013-05-09 19:36:00,73.9,20.1,29.88,SE,135,0.0,0.0,13,0.00,,,0.00,meteohub,2013-05-09 23:36:00,
2013-05-09 19:41:00,73.9,20.1,29.88,SE,135,0.0,0.0,13,0.00,,,0.00,meteohub,2013-05-09 23:41:00,
2013-05-09 19:46:00,73.6,19.8,29.91,SE,135,0.0,0.0,13,0.00,,,0.00,meteohub,2013-05-09 23:46:00,
2013-05-09 19:51:00,73.0,21.0,29.91,SE,135,0.0,0.0,14,0.00,,,0.00,meteohub,2013-05-09 23:51:00,
2013-05-09 19:57:00,72.9,21.0,29.91,SE,135,0.0,0.0,14,0.00,,,0.00,meteohub,2013-05-09 23:57:00,
2013-05-09 20:02:00,72.5,20.7,29.88,SE,135,0.0,0.0,14,0.00,,,0.00,meteohub,2013-05-10 00:02:00,
2013-05-09 20:07:00,72.5,20.7,29.88,SE,135,0.0,0.0,14,0.00,,,0.00,meteohub,2013-05-10 00:07:00,
2013-05-09 20:12:00,72.3,20.5,29.88,ESE,112,0.0,0.0,14,0.00,,,0.00,meteohub,2013-05-10 00:12:00,
2013-05-09 20:17:00,72.1,20.3,29.91,ESE,112,0.0,0.0,14,0.00,,,0.00,meteohub,2013-05-10 00:17:00,
2013-05-09 20:22:00,72.0,20.3,29.91,ESE,112,0.0,0.0,14,0.00,,,0.00,meteohub,2013-05-10 00:22:00,
2013-05-09 20:27:00,71.8,20.1,29.91,ESE,112,0.0,0.0,14,0.00,,,0.00,meteohub,2013-05-10 00:27:00,
2013-05-09 20:32:00,71.6,19.9,29.88,ESE,112,0.0,0.0,14,0.00,,,0.00,meteohub,2013-05-10 00:32:00,
2013-05-09 20:37:00,71.2,19.8,29.88,ESE,112,0.0,0.0,14,0.00,,,0.00,meteohub,2013-05-10 00:37:00,
2013-05-09 20:42:00,71.1,19.6,29.88,ESE,112,0.0,0.0,14,0.00,,,0.00,meteohub,2013-05-10 00:42:00,
2013-05-09 20:47:00,70.9,19.4,29.91,ESE,112,0.0,0.0,14,0.00,,,0.00,meteohub,2013-05-10 00:47:00,
2013-05-09 20:52:00,70.5,19.0,29.91,ESE,112,0.0,0.0,14,0.00,,,0.00,meteohub,2013-05-10 00:52:00,
2013-05-09 20:57:00,70.2,18.9,29.91,ESE,112,0.0,0.0,14,0.00,,,0.00,meteohub,2013-05-10 00:57:00,
2013-05-09 21:02:00,70.2,18.9,29.91,ESE,112,0.0,0.0,14,0.00,,,0.00,meteohub,2013-05-10 01:02:00,
2013-05-09 21:07:00,69.6,19.9,29.91,ESE,112,0.0,0.0,15,0.00,,,0.00,meteohub,2013-05-10 01:07:00,
2013-05-09 21:12:00,69.4,19.9,29.91,ESE,112,0.0,0.0,15,0.00,,,0.00,meteohub,2013-05-10 01:12:00,
2013-05-09 21:17:00,69.3,19.8,29.91,ESE,112,0.0,0.0,15,0.00,,,0.00,meteohub,2013-05-10 01:17:00,
2013-05-09 21:22:00,68.9,19.4,29.91,ESE,112,0.0,0.0,15,0.00,,,0.00,meteohub,2013-05-10 01:22:00,
2013-05-09 21:27:00,68.7,19.2,29.91,ESE,112,0.0,0.0,15,0.00,,,0.00,meteohub,2013-05-10 01:27:00,
2013-05-09 21:32:00,68.5,19.2,29.91,ESE,112,0.0,0.0,15,0.00,,,0.00,meteohub,2013-05-10 01:32:00,
2013-05-09 21:37:00,68.5,19.2,29.91,ESE,112,0.0,0.0,15,0.00,,,0.00,meteohub,2013-05-10 01:37:00,
2013-05-09 21:42:00,68.4,19.0,29.91,East,90,0.0,0.0,15,0.00,,,0.00,meteohub,2013-05-10 01:42:00,
2013-05-09 21:47:00,68.4,21.9,29.91,ESE,112,0.0,0.0,17,0.00,,,0.00,meteohub,2013-05-10 01:47:00,
2013-05-09 21:52:00,68.4,19.0,29.91,East,90,0.0,0.0,15,0.00,,,0.00,meteohub,2013-05-10 01:52:00,
2013-05-09 21:57:00,68.4,19.0,29.91,ESE,112,0.0,0.0,15,0.00,,,0.00,meteohub,2013-05-10 01:57:00,
2013-05-09 22:02:00,68.4,19.0,29.91,SE,135,0.0,0.0,15,0.00,,,0.00,meteohub,2013-05-10 02:02:00,
2013-05-09 22:07:00,68.4,21.9,29.91,ESE,112,0.0,0.0,17,0.00,,,0.00,meteohub,2013-05-10 02:07:00,
2013-05-09 22:12:00,68.4,19.0,29.91,NE,45,0.0,0.0,15,0.00,,,0.00,meteohub,2013-05-10 02:12:00,
2013-05-09 22:17:00,68.4,19.0,29.94,ENE,68,0.0,0.0,15,0.00,,,0.00,meteohub,2013-05-10 02:17:00,
2013-05-09 22:22:00,68.4,19.0,29.94,SE,135,0.0,2.0,15,0.00,,,0.00,meteohub,2013-05-10 02:22:00,
2013-05-09 22:27:00,68.4,19.0,29.94,SE,135,0.0,2.0,15,0.00,,,0.00,meteohub,2013-05-10 02:27:00,
2013-05-09 22:32:00,68.2,18.9,29.94,SE,135,0.0,2.0,15,0.00,,,0.00,meteohub,2013-05-10 02:32:00,
2013-05-09 22:37:00,68.0,18.7,29.94,SE,135,0.0,0.0,15,0.00,,,0.00,meteohub,2013-05-10 02:37:00,
2013-05-09 22:42:00,67.8,18.5,29.94,SE,135,0.0,0.0,15,0.00,,,0.00,meteohub,2013-05-10 02:42:00,
2013-05-09 22:47:00,67.6,18.5,29.94,SE,135,0.0,0.0,15,0.00,,,0.00,meteohub,2013-05-10 02:47:00,
2013-05-09 22:52:00,67.5,18.3,29.94,SE,135,0.0,0.0,15,0.00,,,0.00,meteohub,2013-05-10 02:52:00,
2013-05-09 22:57:00,67.3,18.1,29.94,SE,135,1.0,0.0,15,0.00,,,0.00,meteohub,2013-05-10 02:57:00,
2013-05-09 23:02:00,67.1,18.0,29.94,SE,135,0.0,1.0,15,0.00,,,0.00,meteohub,2013-05-10 03:02:00,
2013-05-09 23:07:00,67.1,18.0,29.94,SE,135,0.0,1.0,15,0.00,,,0.00,meteohub,2013-05-10 03:07:00,
2013-05-09 23:12:00,66.9,17.8,29.94,SE,135,0.0,1.0,15,0.00,,,0.00,meteohub,2013-05-10 03:12:00,
2013-05-09 23:17:00,66.7,17.8,29.94,SE,135,0.0,0.0,15,0.00,,,0.00,meteohub,2013-05-10 03:17:00,
2013-05-09 23:22:00,66.7,20.7,29.94,SE,135,0.0,0.0,17,0.00,,,0.00,meteohub,2013-05-10 03:22:00,
2013-05-09 23:27:00,66.6,20.5,29.94,SE,135,0.0,0.0,17,0.00,,,0.00,meteohub,2013-05-10 03:27:00,
2013-05-09 23:32:00,66.4,20.3,29.94,SE,135,0.0,0.0,17,0.00,,,0.00,meteohub,2013-05-10 03:32:00,
2013-05-09 23:37:00,66.4,17.4,29.94,SE,135,0.0,0.0,15,0.00,,,0.00,meteohub,2013-05-10 03:37:00,
2013-05-09 23:42:00,66.4,17.4,29.94,SE,135,0.0,0.0,15,0.00,,,0.00,meteohub,2013-05-10 03:42:00,
2013-05-09 23:47:00,66.2,17.2,29.91,SE,135,0.0,0.0,15,0.00,,,0.00,meteohub,2013-05-10 03:47:00,
2013-05-09 23:52:00,66.2,20.1,29.91,SE,135,0.0,0.0,17,0.00,,,0.00,meteohub,2013-05-10 03:52:00,
2013-05-09 23:57:00,66.0,21.4,29.91,NNW,338,0.0,0.0,18,0.00,,,0.00,meteohub,2013-05-10 03:57:00,